Location: ??
(34.9170°N, 135.5016°E)
Time: 18:42:36
(UTC+00:00)

CZ-3 R/B - Pass Details

Date: 29 October 2020
Orbit: 373 x 10235 km, 28.4° (Epoch: 30 November)

Event Time Altitude Azimuth Distance (km) Brightness Sun altitude
Exits shadow 18:58:43 33° 249° (WSW) 6,662 5.2 -28.8°
Maximum altitude 19:13:45 67° 181° (S) 2,816 3.7 -25.8°
Drops below altitude 10° 19:22:35 10° 100° (E) 3,355 5.3 -23.9°
Sets 19:24:24 0° 97° (E) 3,904 6.1 -23.6°
